Погода в Больших Рымы

Россия / Костромская область     57°28′55″N   43°52′55″E
темп.,
°C
ветер,
м/с
пор.,
м/с
влажн.,
%
обл.,
%
осадки,
мм/ч
давл.,
гПа
погр.,
м
17 мая, пн
пн1700:00+14зюз22860 0.0 101435
03:00+12зюз22880 0.0 101525
06:00+16зсз13764 0.0 1016127
09:00+21зюз125517 0.0 1017738
12:00+24з234365 0.0 10171654
15:00+26з02385 0.0 10161819
18:00+24всв235488 0.0 101683
21:00+17в3775100 0.0 1017107
18 мая, вт
вт1800:00+16вюв31080100 0.0 1017190
03:00+14вюв3109384 0.6 1017192
06:00+16вюв4118689 0.0 1017289
09:00+22вюв5865100 0.0 1017518
12:00+26вюв5749100 0.0 10171052
15:00+28юв5843100 0.0 10162291
18:00+25вюв4105493 0.0 1016673
21:00+20вюв5137843 0.0 1016380
19 мая, ср
ср1900:00+18юв5158172 0.0 1016454
03:00+16вюв413855 0.0 1017327
06:00+18юв413755 0.0 1017373
09:00+23юв510513 0.0 1017620
12:00+27юв68435 0.0 10161184
15:00+27юв68400 0.0 10161590
18:00+24юв59500 0.0 1016877
21:00+19юв413620 0.0 1016442
20 мая, чт
чт2000:00+16юв413700 0.0 1016371
03:00+14вюв413800 0.0 1016314
06:00+17вюв411740 0.0 1015305
09:00+22юв610510 0.0 10141028
12:00+25юв69350 0.0 10141629
15:00+26юв69370 0.0 10131899
18:00+24юв510532 0.0 10131553
21:00+19юв413670 0.0 1013594
21 мая, пт
пт2100:00+16юв412740 0.0 1013417
03:00+14ююв31094100 0.0 1014283
06:00+16ююв498173 0.0 1014448
09:00+20ююв5860100 0.0 10131157
12:00+23ю6104463 0.0 10122351
15:00+21ююв69628 0.6 10111573
18:00+15зюз3890100 2.8 1011452
21:00+14ю412883 3.4 1010567